Flag for France Weather past 2 weeks in Bastia, Corsica, France

41 °F

Passing clouds.

Feels Like: 37 °F
Forecast: 48 / 60 °F
Wind: 6 mph from Southwest

Location: Bastia Airport

Current Time: Nov 29, 2015 at 9:08:06 AM

Latest Report: Nov 29, 2015 at 8:30 AM

Visibility: N/A

Pressure: 30.18 "Hg

Humidity: 81%

Dew point: 36 °F

Location of BastiaLocation

Historic Weather in Bastia — Graph


Bastia temperature yesterday

Maximum temperature yesterday: 59 °F (at 11:30 AM)
Minimum temperature yesterday: 41 °F (at 6:00 AM)
Average temperature yesterday: 49 °F

Past Weeks' High & Low Weather Summary

High72 °F (Nov 21, 2:30 AM)100% (Nov 15, 9:30 PM)30.30 "Hg (Nov 15, 9:30 PM)
Low39 °F (Nov 29, 7:30 AM)27% (Nov 21, 3:36 PM)29.15 "Hg (Nov 21, 4:00 PM)
Average54 °F74%29.93 "Hg
* Reported Nov 14 8:30 AM — Nov 29 8:00 AM, Bastia, Weather by CustomWeather, © 2015

Note: Actual official high and low records may vary slightly from our data, if they occured in-between our weather recording intervals... More about our weather records


Bastia weather history for previous 24 hours

Time TempWeatherWind HumidityBarometerVisibility
8:00 AM
Sun, Nov 29
41 °FPassing clouds.6 mph81%30.18 "HgN/A
7:30 AM39 °FScattered clouds.No wind81%30.15 "HgN/A
7:00 AM41 °FPassing clouds.7 mph76%30.15 "HgN/A
6:00 AM43 °FPassing clouds.5 mph71%30.12 "HgN/A
5:30 AM45 °FPassing clouds.3 mph66%30.12 "HgN/A
5:00 AM45 °FClear.12 mph66%30.12 "Hg10 mi
3:30 AM45 °FClear.8 mph71%30.12 "Hg10 mi
3:00 AM46 °FClear.9 mph66%30.12 "Hg10 mi
2:30 AM46 °FClear.9 mph66%30.12 "Hg10 mi
2:00 AM46 °FClear.10 mph66%30.12 "Hg10 mi
1:30 AM46 °FClear.9 mph71%30.12 "Hg10 mi
1:00 AM46 °FClear.9 mph71%30.09 "Hg10 mi
12:30 AM46 °FClear.10 mph71%30.09 "Hg10 mi
12:00 AM46 °FClear.9 mph71%30.09 "Hg10 mi
11:00 PM
Sat, Nov 28
48 °FClear.9 mph71%30.07 "Hg10 mi
10:30 PM46 °FClear.8 mph76%30.07 "Hg10 mi
9:30 PM48 °FClear.7 mph76%30.04 "Hg10 mi
9:00 PM46 °FClear.7 mph82%30.04 "Hg10 mi
8:30 PM46 °FClear.6 mph82%30.04 "Hg10 mi
8:00 PM46 °FClear.6 mph82%30.01 "Hg10 mi
7:30 PM46 °FClear.6 mph82%30.01 "Hg10 mi
7:00 PM46 °FClear.No wind82%30.01 "Hg10 mi
6:30 PM46 °FClear.3 mph82%29.98 "Hg10 mi
6:00 PM46 °FClear.5 mph87%29.98 "Hg10 mi
5:30 PM48 °FClear.5 mph82%29.95 "Hg10 mi
5:00 PM52 °FPassing clouds.3 mph77%29.95 "HgN/A
4:30 PM55 °FPassing clouds.No wind67%29.95 "HgN/A
4:00 PM57 °FScattered clouds.2 mph67%29.92 "HgN/A
3:30 PM55 °FScattered clouds.1 mph67%29.92 "HgN/A
3:00 PM57 °FPartly sunny.3 mph63%29.89 "HgN/A
2:30 PM59 °FScattered clouds.5 mph59%29.89 "HgN/A
2:00 PM59 °FScattered clouds.5 mph59%29.89 "HgN/A
1:30 PM59 °FPassing clouds.5 mph59%29.89 "HgN/A
1:00 PM59 °FPassing clouds.5 mph63%29.89 "HgN/A
12:30 PM59 °FPassing clouds.6 mph59%29.89 "HgN/A
12:00 PM59 °FPassing clouds.6 mph59%29.89 "HgN/A
11:30 AM59 °FPassing clouds.2 mph55%29.89 "HgN/A
11:00 AM55 °FPassing clouds.2 mph55%29.89 "HgN/A
10:30 AM54 °FPassing clouds.3 mph58%29.89 "HgN/A
10:00 AM50 °FPassing clouds.5 mph58%29.89 "HgN/A
9:30 AM48 °FPassing clouds.3 mph62%29.89 "HgN/A
Weather by CustomWeather, © 2015

See weather overviewHow to use our weather pages